Date String (YYYY-MM-DD hh:mm:ss) UTC,Instrument flags,absolute air pressure of the measurement (hPa),sample flow rate (lpm),inlet stack bypass flow (lpm),air temperature of the measurement (°C),ambient temperature measured by the external sensor (°C),aerosol sample conditioner tube jacket temperature (°C),OPC LED temperature (°C),internal box temperature (°C),relative humidity of the measurement (%),span deviation,mass concentration of particles derived from Lorenz-Mie calculation of OPC scattering (μg/m³),mass concentration of particles derived from Lorenz-Mie calculation of OPC scattering (μg/m³),mass concentration of particles derived from Lorenz-Mie calculation of OPC scattering (μg/m³)
DateTimeUTC,F1_M11,P_M11,Q1_M11,Q2_M11,T1_M11,T2_M11,T3_M11,T4_M11,T5_M11,U1_M11,ZSPAN_M11,X0_M11,X2_M11,X1_M11
2023-10-01 13:00:00,SystemResetWarning,0826.9,5.01,000.00,028.5,027.0,000.0,037.0,030.2,19.3,0000.0,0008.57,0002.92,0002.18
2023-10-01 13:01:00,SystemResetWarning,0826.9,5.00,000.00,028.5,027.0,000.0,037.0,030.2,19.3,0000.0,0008.18,0002.93,0002.18
2023-10-01 13:02:00,SystemResetWarning,0826.9,5.00,000.00,028.5,027.1,000.0,037.0,030.2,19.3,0000.0,0008.88,0002.97,0002.19
2023-10-01 13:03:00,SystemResetWarning,0826.9,4.99,000.00,028.5,027.2,000.0,037.0,030.2,19.3,0000.0,0008.67,0002.99,0002.20
2023-10-01 13:04:00,SystemResetWarning,0827.0,4.99,000.00,028.5,027.2,000.0,037.0,030.3,19.3,0000.0,0008.46,0003.02,0002.22
2023-10-01 13:05:00,SystemResetWarning,0827.0,5.00,000.00,028.6,027.3,000.0,037.0,030.3,19.2,0000.0,0008.15,0003.09,0002.23
2023-10-01 13:06:00,SystemResetWarning,0826.9,5.01,000.00,028.6,027.3,000.0,037.0,030.3,19.2,0000.0,0008.32,0003.13,0002.24
2023-10-01 13:07:00,SystemResetWarning,0826.9,5.00,000.00,028.6,027.3,000.0,037.0,030.4,19.2,0000.0,0008.79,0003.16,0002.26
2023-10-01 13:08:00,SystemResetWarning,0826.9,4.99,000.00,028.6,027.4,000.0,037.0,030.4,19.2,0000.0,0008.99,0003.14,0002.24
2023-10-01 13:09:00,SystemResetWarning,0826.9,5.00,000.00,028.6,027.4,000.0,037.0,030.4,19.2,0000.0,0008.45,0003.14,0002.24
2023-10-01 13:10:00,SystemResetWarning,0826.9,5.00,000.00,028.6,027.4,000.0,037.0,030.4,19.1,0000.0,0007.70,0003.11,0002.23
2023-10-01 13:11:00,SystemResetWarning,0826.9,5.00,000.00,028.7,027.4,000.0,037.0,030.4,19.2,0000.0,0007.54,0003.08,0002.25
2023-10-01 13:12:00,SystemResetWarning,0826.9,4.99,000.00,028.7,027.4,000.0,037.0,030.4,19.1,0000.0,0008.16,0003.10,0002.26
2023-10-01 13:13:00,SystemResetWarning,0826.9,5.00,000.00,028.7,027.4,000.0,037.0,030.4,19.1,0000.0,0007.56,0003.09,0002.26
2023-10-01 13:14:00,SystemResetWarning,0826.9,4.99,000.00,028.7,027.4,000.0,037.1,030.4,19.0,0000.0,0007.83,0003.11,0002.26
2023-10-01 13:15:00,SystemResetWarning,0826.9,5.00,000.00,028.7,027.5,000.0,037.1,030.4,19.0,0000.0,0008.17,0003.11,0002.25
2023-10-01 13:16:00,SystemResetWarning,0826.8,5.01,000.00,028.7,027.5,000.0,037.1,030.5,19.0,0000.0,0008.29,0003.09,0002.23
2023-10-01 13:17:00,SystemResetWarning,0826.8,5.01,000.00,028.7,027.5,000.0,037.1,030.5,19.0,0000.0,0008.18,0003.07,0002.23
2023-10-01 13:18:00,SystemResetWarning,0826.8,5.00,000.00,028.8,027.5,000.0,037.1,030.5,19.0,0000.0,0007.90,0003.00,0002.23
2023-10-01 13:19:00,SystemResetWarning,0826.8,5.00,000.00,028.8,027.5,000.0,037.1,030.5,19.0,0000.0,0008.26,0002.98,0002.23
2023-10-01 13:20:00,SystemResetWarning,0826.8,4.99,000.00,028.8,027.5,000.0,037.1,030.5,19.1,0000.0,0008.58,0003.01,0002.25
2023-10-01 13:21:00,SystemResetWarning,0826.8,4.99,000.00,028.8,027.5,000.0,037.2,030.5,19.2,0000.0,0008.66,0003.05,0002.24
2023-10-01 13:22:00,SystemResetWarning,0826.8,5.00,000.00,028.8,027.6,000.0,037.2,030.5,19.2,0000.0,0008.74,0003.06,0002.23
2023-10-01 13:23:00,SystemResetWarning,0826.9,5.00,000.00,028.8,027.6,000.0,037.2,030.5,19.3,0000.0,0008.23,0003.06,0002.23
2023-10-01 13:24:00,SystemResetWarning,0826.9,5.01,000.00,028.8,027.6,000.0,037.2,030.6,19.4,0000.0,0008.18,0003.08,0002.24
2023-10-01 13:25:00,SystemResetWarning,0826.9,5.00,000.00,028.9,027.6,000.0,037.2,030.6,19.4,0000.0,0007.99,0003.09,0002.25
2023-10-01 13:26:00,SystemResetWarning,0827.0,4.99,000.00,028.9,027.6,000.0,037.2,030.6,19.4,0000.0,0008.40,0003.09,0002.26
2023-10-01 13:27:00,SystemResetWarning,0827.0,4.99,000.00,028.9,027.3,000.0,037.2,030.6,19.4,0000.0,0008.57,0003.08,0002.29
2023-10-01 13:28:00,SystemResetWarning,0826.9,5.00,000.00,028.8,025.3,000.0,037.2,030.4,19.4,0000.0,0008.76,0003.10,0002.30
2023-10-01 13:29:00,SystemResetWarning,0826.9,5.00,000.00,028.8,024.5,000.0,037.1,030.3,19.5,0000.0,0009.11,0003.14,0002.30
2023-10-01 13:30:00,SystemResetWarning,0826.9,5.01,000.00,028.6,024.6,000.0,037.1,030.0,19.6,0000.0,0008.40,0003.16,0002.30
2023-10-01 13:31:00,SystemResetWarning,0827.0,4.99,000.00,028.5,024.9,000.0,037.1,030.0,19.7,0000.0,0008.17,0003.16,0002.30
2023-10-01 13:32:00,SystemResetWarning,0826.9,4.99,000.00,028.5,025.3,000.0,037.1,030.0,19.8,0000.0,0008.46,0003.15,0002.31
2023-10-01 13:33:00,SystemResetWarning,0827.0,5.00,000.00,028.5,025.6,000.0,037.1,030.0,19.8,0000.0,0008.50,0003.18,0002.32
2023-10-01 13:34:00,SystemResetWarning,0827.0,5.01,000.00,028.4,025.9,000.0,037.1,030.0,19.9,0000.0,0008.53,0003.21,0002.33
2023-10-01 13:35:00,SystemResetWarning,0827.1,5.00,000.00,028.4,026.2,000.0,037.0,030.0,20.0,0000.0,0008.75,0003.23,0002.32
2023-10-01 13:36:00,SystemResetWarning,0827.1,4.99,000.00,028.4,026.4,000.0,037.0,030.1,20.0,0000.0,0008.89,0003.26,0002.33
2023-10-01 13:37:00,SystemResetWarning,0827.1,5.00,000.00,028.4,026.6,000.0,037.0,030.1,20.1,0000.0,0008.14,0003.29,0002.34
2023-10-01 13:38:00,SystemResetWarning,0827.1,5.00,000.00,028.4,026.7,000.0,037.0,030.1,20.0,0000.0,0007.72,0003.27,0002.34
2023-10-01 13:39:00,SystemResetWarning,0827.2,5.01,000.00,028.5,026.8,000.0,037.0,030.2,20.0,0000.0,0007.59,0003.26,0002.33
2023-10-01 13:40:00,SystemResetWarning,0827.2,5.00,000.00,028.5,026.9,000.0,037.0,030.2,20.0,0000.0,0007.51,0003.24,0002.34
2023-10-01 13:41:00,SystemResetWarning,0827.3,5.00,000.00,028.5,027.0,000.0,037.0,030.2,19.9,0000.0,0007.71,0003.24,0002.35
2023-10-01 13:42:00,SystemResetWarning,0827.3,5.00,000.00,028.5,027.1,000.0,037.0,030.2,19.9,0000.0,0007.64,0003.27,0002.37
2023-10-01 13:43:00,SystemResetWarning,0827.2,5.00,000.00,028.5,027.2,000.0,037.0,030.3,20.0,0000.0,0007.39,0003.30,0002.38
2023-10-01 13:44:00,SystemResetWarning,0827.2,5.01,000.00,028.5,027.2,000.0,037.0,030.3,20.1,0000.0,0007.60,0003.30,0002.39
2023-10-01 13:45:00,SystemResetWarning,0827.2,5.00,000.00,028.6,027.3,000.0,037.0,030.3,20.1,0000.0,0007.78,0003.32,0002.40
2023-10-01 13:46:00,SystemResetWarning,0827.2,4.99,000.00,028.6,027.3,000.0,037.0,030.3,20.0,0000.0,0008.02,0003.34,0002.41
2023-10-01 13:47:00,SystemResetWarning,0827.1,4.99,000.00,028.6,027.3,000.0,037.0,030.4,20.0,0000.0,0008.21,0003.32,0002.42
2023-10-01 13:48:00,SystemResetWarning,0827.2,5.00,000.00,028.6,027.4,000.0,037.0,030.4,20.0,0000.0,0008.09,0003.30,0002.43
2023-10-01 13:49:00,SystemResetWarning,0827.2,4.99,000.00,028.6,027.4,000.0,037.0,030.4,20.0,0000.0,0008.13,0003.32,0002.45
2023-10-01 13:50:00,SystemResetWarning,0827.2,5.00,000.00,028.7,027.4,000.0,037.0,030.4,20.1,0000.0,0008.16,0003.33,0002.47
2023-10-01 13:51:00,SystemResetWarning,0827.2,5.00,000.00,028.7,027.4,000.0,037.0,030.4,20.1,0000.0,0007.97,0003.31,0002.49
2023-10-01 13:52:00,SystemResetWarning,0827.2,5.00,000.00,028.7,027.5,000.0,037.0,030.4,20.2,0000.0,0007.84,0003.32,0002.51
2023-10-01 13:53:00,SystemResetWarning,0827.2,5.00,000.00,028.7,027.5,000.0,037.0,030.5,20.3,0000.0,0007.90,0003.36,0002.53
2023-10-01 13:54:00,SystemResetWarning,0827.2,5.00,000.00,028.7,027.5,000.0,037.1,030.5,20.3,0000.0,0007.81,0003.35,0002.55
2023-10-01 13:55:00,SystemResetWarning,0827.2,5.01,000.00,028.7,027.5,000.0,037.1,030.5,20.3,0000.0,0007.72,0003.31,0002.56
2023-10-01 13:56:00,SystemResetWarning,0827.2,5.01,000.00,028.7,027.5,000.0,037.1,030.5,20.4,0000.0,0007.79,0003.28,0002.56
2023-10-01 13:57:00,SystemResetWarning,0827.1,5.00,000.00,028.7,027.5,000.0,037.1,030.5,20.5,0000.0,0007.59,0003.27,0002.58
2023-10-01 13:58:00,SystemResetWarning,0827.2,5.00,000.00,028.8,027.5,000.0,037.1,030.5,20.3,0000.0,0006.90,0003.27,0002.59
2023-10-01 13:59:00,SystemResetWarning,0827.2,5.00,000.00,028.8,027.5,000.0,037.1,030.5,20.4,0000.0,0007.20,0003.27,0002.59
